Regional Weather Roundup
Issued by NWS Northern Indiana

Home | Current Version | Previous Version | Text Only | Print | Product List | Glossary Off
Versions: 1 2 3 4 5 6 7 8 9 10 11 12 13 14 15 16 17 18 19 20 21 22 23 24 25 26 27 28 29 30 31 32 33 34 35 36 37 38 39 40 41 42 43 44 45 46 47 48 49 50

000
ASUS43 KIWX 201000
RWRIWX

KIWX WEATHER ROUNDUP
NATIONAL WEATHER SERVICE NORTHERN INDIANA
600 AM EDT WED AUG 20 2014

NOTE: "FAIR" INDICATES FEW OR NO CLOUDS BELOW 12,000 FEET WITH NO
SIGNIFICANT WEATHER AND/OR OBSTRUCTIONS TO VISIBILITY.

* THESE STATIONS ARE NOT UNDER NWS QUALITY CONTROL. THEY ALSO MAY NOT
  REPORT WEATHER SUCH AS PRECIPITATION OR FOG.

INZ001>027-201100-
NORTHERN INDIANA

CITY           SKY/WX    TMP DP  RH WIND       PRES   REMARKS
GARY*          PTCLDY    68  64  88 SW3       29.83R
VALPARAISO     CLEAR     64  62  93 W5        29.84R
KNOX*          CLEAR     65  63  93 W6        29.83R
SOUTH BEND     CLEAR     65  63  93 W3        29.83R
GOSHEN         CLEAR     65  63  93 SW3       29.83R FOG
MONTICELLO*    CLEAR     64  63  99 S3        29.84R
WARSAW*        CLEAR     64  63  94 CALM      29.84R FOG
ANGOLA*        CLEAR     66  57  72 W6        29.82S
FORT WAYNE     PTCLDY    65  64  97 SW8       29.84S
PERU/GRISSOM   CLEAR     64  64 100 SW5       29.85R

$$
INZ028>050-201100-
CENTRAL INDIANA

CITY           SKY/WX    TMP DP  RH WIND       PRES   REMARKS
LAFAYETTE      FOG       62  62 100 W3        29.84S VSB 1/4
KOKOMO*        CLEAR     64  63  94 W7        29.85S
MUNCIE*        CLEAR     66  63  90 SW6       29.86R
INDIANAPOLIS   CLEAR     65  63  93 W8        29.86R

$$
MIZ043>046-050>051-056>058-064>065-071>073-077>080-201100-
SOUTHWEST LOWER MICHIGAN

CITY           SKY/WX    TMP DP  RH WIND       PRES   REMARKS
BATTLE CREEK   FOG       66  65  96 SW6       29.82R VSB 1/4
BENTON HARBOR  PTCLDY    64  64 100 CALM      29.81R FOG
COLDWATER*     CLEAR     66  65  96 SW5       29.82R FOG
HILLSDALE*     CLEAR     66  66 100 CALM      29.83R FOG
HOLLAND        CLEAR     65  63  93 CALM      29.80R FOG
GRAND RAPIDS   MOCLDY    66  66 100 W5        29.80R FOG
KALAMAZOO      CLEAR     67  65  93 CALM      29.81R FOG
STURGIS*       FOG       63  63 100 SW3       29.82R VSB 3/4
THREE RIVERS*  FAIR      65  65  98 SW3       29.82R FOG

$$
OHZ001>008-015>018-024>025-201100-
NORTHWEST OHIO

CITY           SKY/WX    TMP DP  RH WIND       PRES   REMARKS
DEFIANCE       PTCLDY    67  65  93 SW6       29.82R
FINDLAY        MOCLDY    67  65  93 SW7       29.82S
TOLEDO EXPRESS MOCLDY    67  65  93 SW6       29.81R
TOLEDO METCALF MOCLDY    67  64  90 SW5       29.82R
LIMA           MOCLDY    69  66  90 SW7       29.85R

$$
&&



USA.gov is the U.S. government's official web portal to all federal, state and local government web resources and services.